Location: Aucun
(42.9667°N, 0.1667°W)
Time: 20:08:55
(UTC+00:00)

FENGYUN 3A - Pass Details

Date: 17 February 2020
Orbit: 824 x 836 km, 98.4° (Epoch: 07 April)

Event Time Altitude Azimuth Distance (km) Brightness Sun altitude
Rises 04:50:46 0° 18° (NNE) 3,395 7.1 -23.6°
Reaches altitude 10° 04:53:13 10° 23° (NNE) 2,457 6.4 -23.1°
Maximum altitude 04:58:31 52° 100° (E) 1,036 4.5 -22.2°
Drops below altitude 10° 05:03:48 10° 176° (S) 2,440 6.1 -21.2°
Sets 05:06:12 0° 181° (S) 3,370 6.8 -20.8°
